Regional Weather Roundup
Issued by NWS Kansas City/Pleasant Hill, MO

Home | Current Version | Previous Version | Graphics & Text | Print | Product List | Glossary Off
Versions: 1 2 3 4 5 6 7 8 9 10 11 12 13 14 15 16 17 18 19 20 21 22 23 24 25 26 27 28 29 30 31 32 33 34 35 36 37 38 39 40 41 42 43 44 45 46 47 48 49 50

000
ASUS43 KEAX 272010
RWREAX

WEATHER ROUNDUP FOR EASTERN KANSAS AND NORTHWEST MISSOURI
NATIONAL WEATHER SERVICE KANSAS CITY/PLEASANT HILL MO
300 PM CDT MON JUL 27 2015

KSZ040-057-103>105-MOZ028-029-037-043-272100-
...KANSAS CITY METROPOLITAN AREA...

CITY           SKY/WX    TMP DP  RH WIND       PRES   REMARKS
K.C. INTL      CLOUDY    86  77  74 S8        29.91F HX  97
K.C. DOWNTOWN  CLOUDY    90  74  59 S8        29.89F HX  99
LEES SUMMIT    CLOUDY    89  76  65 S5        29.92F HX 100
OLATHE - IXD   CLOUDY    93  74  53 VRB7      29.92F HX 103
OLATHE - OJC   CLOUDY    91  76  61 S8        29.92F HX 103
LAWRENCE       PTSUNNY   90  77  65 SE9       29.89F HX 103

$$

MOZ001>008-011>017-020>025-030>033-038>040-044>046-053-054-272100-
...NORTHERN AND CENTRAL MISSOURI...

CITY           SKY/WX    TMP DP  RH WIND       PRES   REMARKS
ST. JOSEPH     CLOUDY    86  79  79 S6        29.89F HX  99
MOSBY          CLOUDY    88  73  62 S5        29.90F HX  96
WARRENSBURG    MOSUNNY   90  72  55 SW7       29.91F HX  96
WHITEMAN AFB   MOSUNNY   94  75  54 VRB7      29.91F HX 105
CLINTON          N/A     95  75  52 S5        29.93S HX 107
SEDALIA        MOSUNNY   95  73  48 SW8       29.94F HX 104
WARSAW         NOT AVBL
CHILLICOTHE      N/A     93  77  59 S9        29.90F HX 107
KIRKSVILLE     PTSUNNY   90  78  68 E8        29.93F HX 104

$$

MOZ041-047>049-056>058-063>065-088>090-097-272100-
...EASTERN AND SOUTHERN MISSOURI...

CITY           SKY/WX    TMP DP  RH WIND       PRES   REMARKS
ST. LOUIS INTL PTSUNNY   93  77  59 NE9       29.92F HX 107
SPIRIT OF STL  MOSUNNY   94  78  60 N6        29.90F HX 110
COLUMBIA       MOSUNNY   92  76  59 SW8       29.93F HX 104
JEFFERSON CITY MOSUNNY   92  74  55 S5        29.91F HX 101
ROLLA          MOSUNNY   92  75  57 W6        29.95S HX 103
SPRINGFIELD    SUNNY     93  69  45 MISG      29.95F HX  98
BRANSON        MOSUNNY   93  73  52 CALM      29.98F HX 102
JOPLIN         MOSUNNY   94  73  50 S7        29.93F HX 103
WEST PLAINS    MOSUNNY   93  74  53 SW6       29.98F HX 103

$$

IAZ060-094-KSZ022-034>040-054-083-096-NEZ052-066-093-272100-
...KANSAS...SOUTHEAST NEBRASKA AND IOWA...

CITY           SKY/WX    TMP DP  RH WIND       PRES   REMARKS
TOPEKA         PTSUNNY   89  78  70 E7        29.87F HX 103
MANHATTAN      MOSUNNY   90  77  65 E7        29.87F HX 103
EMPORIA        SUNNY     97  67  37 S20       29.89F HX 101
CHANUTE        SUNNY     94  72  48 S10G20    29.92S HX 102
WICHITA        PTSUNNY   97  66  36 S17       29.88F HX 100
OMAHA          MOSUNNY   88  74  63 S12       29.88F HX  96
LINCOLN        SUNNY     91  70  49 S16       29.87F HX  96
FALLS CITY     CLOUDY    85  78  80 SE6       29.89F HX  96
LAMONI         CLOUDY    91  81  72 VRB6      29.91F HX 111
DES MOINES     LGT RAIN  74  69  85 NE17      29.94F

$$



USA.gov is the U.S. government's official web portal to all federal, state and local government web resources and services.